Weather History for Lake Charles Regional, LA

Change the Weather History Date:

Monday, February 17, 2014

  Actual Average Record
Temperature  
Mean Temperature 69 °F 55 °F  
Max Temperature 75 °F 65 °F 80 °F (1911)
Min Temperature 62 °F 46 °F 20 °F (1903)
Degree Days  
Heating Degree Days 0 10  
Month to date heating degree days 282 194  
Since 1 July heating degree days 1572 1185  
Cooling Degree Days 4 0  
Month to date cooling degree days 4 0  
Year to date cooling degree days 4 10  
Growing Degree Days 19 (Base 50)    
Moisture  
Dew Point 62 °F    
Average Humidity 87    
Maximum Humidity 100    
Minimum Humidity 73    
Precipitation  
Precipitation 0.00 in 0.12 in 3.31 in (1961)
Month to date precipitation 2.44 2.18  
Year to date precipitation 4.73 7.41  
Snow  
Snow 0.00 in 0.00 in T in (1973)
Month to date snowfall T 0.1  
Since 1 July snowfall 0.1 0.1  
Snow Depth 0.00 in    
Sea Level Pressure  
Sea Level Pressure 30.10 in    
Wind  
Wind Speed 10 mph (SSW)    
Max Wind Speed 18 mph    
Max Gust Speed 25 mph    
Visibility 10 miles    
Events      
T = Trace of Precipitation, MM = Missing Value Source: NWS Daily Summary

Daily Weather History Graph

Daily Weather History Graph

Search for Another Location

Airport:

Trip Planner

Search our weather history database for the weather conditions in past years. The results will help you decide how hot, cold, wet, or windy it might be!

Date:

Astronomy

Feb. 17, 2014 Rise Set
Actual Time 6:51 AM CST 6:03 PM CST
Civil Twilight 6:26 AM CST 6:27 PM CST
Nautical Twilight 5:58 AM CST 6:55 PM CST
Astronomical Twilight 5:30 AM CST 7:23 PM CST
Moon 8:42 PM CST (2/17) 8:05 AM CST (2/17)
Length of Visible Light 12h 00m
Length of Day
11h 12m
Waning Gibbous, 93% of the Moon is Illuminated
Feb 17
Waning Gibbous
Feb 22
Last Quarter
Mar 1
New
Mar 8
First Quarter
Mar 16
Full

Hourly Weather History & Observations

Time (CST) Temp. Dew Point Humidity Pressure Visibility Wind Dir Wind Speed Gust Speed Precip Events Conditions
12:53 AM 63.0 °F 59.0 °F 87% 30.08 in 10.0 mi South 9.2 mph - N/A   Overcast
1:53 AM 63.0 °F 57.0 °F 81% 30.06 in 10.0 mi South 13.8 mph 21.9 mph N/A   Scattered Clouds
2:53 AM 63.0 °F 57.0 °F 81% 30.05 in 10.0 mi SSW 8.1 mph - N/A   Overcast
3:53 AM 64.0 °F 57.0 °F 78% 30.04 in 10.0 mi SSW 10.4 mph 17.3 mph N/A   Overcast
4:53 AM 64.0 °F 57.9 °F 80% 30.04 in 10.0 mi South 11.5 mph - N/A   Overcast
5:53 AM 64.9 °F 59.0 °F 81% 30.05 in 10.0 mi South 9.2 mph - N/A   Overcast
6:53 AM 64.0 °F 59.0 °F 84% 30.06 in 10.0 mi South 6.9 mph - N/A   Overcast
7:53 AM 64.9 °F 61.0 °F 87% 30.09 in 10.0 mi South 8.1 mph - N/A   Overcast
8:53 AM 66.9 °F 62.1 °F 84% 30.11 in 9.0 mi South 11.5 mph - N/A   Overcast
9:53 AM 70.0 °F 63.0 °F 78% 30.12 in 10.0 mi South 15.0 mph 23.0 mph N/A   Overcast
10:53 AM 71.1 °F 64.0 °F 78% 30.13 in 10.0 mi SSW 12.7 mph 23.0 mph N/A   Overcast
11:31 AM 70.0 °F 64.0 °F 81% 30.11 in 10.0 mi SSW 12.7 mph 21.9 mph N/A   Overcast
11:53 AM 72.0 °F 64.0 °F 76% 30.12 in 10.0 mi SSW 13.8 mph 20.7 mph N/A   Overcast
12:30 PM 73.0 °F 64.9 °F 76% 30.10 in 10.0 mi SW 13.8 mph 19.6 mph N/A   Overcast
12:53 PM 72.0 °F 64.9 °F 78% 30.11 in 10.0 mi SSW 12.7 mph - N/A   Overcast
1:08 PM 73.0 °F 64.9 °F 76% 30.08 in 10.0 mi SSW 12.7 mph - N/A   Mostly Cloudy
1:53 PM 73.0 °F 64.9 °F 76% 30.09 in 10.0 mi SSW 13.8 mph 23.0 mph N/A   Scattered Clouds
2:53 PM 73.0 °F 66.0 °F 79% 30.08 in 10.0 mi SSW 12.7 mph 20.7 mph N/A   Mostly Cloudy
3:33 PM 71.1 °F 64.9 °F 81% 30.06 in 10.0 mi SSW 12.7 mph 20.7 mph N/A   Overcast
3:36 PM 71.1 °F 66.0 °F 84% 30.06 in 10.0 mi SSW 13.8 mph 20.7 mph N/A   Overcast
3:53 PM 71.1 °F 64.9 °F 81% 30.08 in 10.0 mi SSW 15.0 mph 21.9 mph N/A   Mostly Cloudy
4:41 PM 69.1 °F 64.9 °F 87% 30.07 in 10.0 mi SSW 9.2 mph 19.6 mph N/A   Overcast
4:53 PM 69.1 °F 64.9 °F 87% 30.09 in 10.0 mi SSW 11.5 mph 17.3 mph N/A   Overcast
5:53 PM 66.0 °F 63.0 °F 90% 30.11 in 10.0 mi SW 6.9 mph - N/A   Overcast
6:53 PM 64.9 °F 63.0 °F 93% 30.11 in 10.0 mi SW 8.1 mph - N/A   Overcast
7:24 PM 64.0 °F 63.0 °F 96% 30.10 in 8.0 mi SW 8.1 mph - N/A   Overcast
7:53 PM 63.0 °F 62.1 °F 97% 30.13 in 7.0 mi SSW 5.8 mph - N/A   Overcast
8:53 PM 63.0 °F 62.1 °F 97% 30.14 in 7.0 mi SW 3.5 mph - N/A   Overcast
9:33 PM 63.0 °F 62.1 °F 97% 30.13 in 9.0 mi SSW 4.6 mph - N/A   Overcast
9:40 PM 63.0 °F 62.1 °F 97% 30.13 in 9.0 mi SW 3.5 mph - N/A   Overcast
9:53 PM 63.0 °F 62.1 °F 97% 30.15 in 9.0 mi SSW 3.5 mph - N/A   Overcast
10:00 PM 63.0 °F 62.1 °F 97% 30.13 in 9.0 mi SSW 3.5 mph - N/A   Overcast
10:16 PM 63.0 °F 62.1 °F 97% 30.13 in 9.0 mi Calm Calm - N/A   Overcast
10:53 PM 63.0 °F 62.1 °F 97% 30.15 in 9.0 mi Calm Calm - N/A   Overcast
11:07 PM 63.0 °F 62.1 °F 97% 30.13 in 9.0 mi South 3.5 mph - N/A   Overcast
11:34 PM 63.0 °F 62.1 °F 97% 30.12 in 8.0 mi SSW 4.6 mph - N/A   Overcast
11:53 PM 63.0 °F 62.1 °F 97% 30.14 in 9.0 mi SSW 4.6 mph - N/A   Overcast